STARLINK BM

Last updated on Wed May 19 2021 00:02:08 GMT+0000 (Coordinated Universal Time)

1 48487U 21040BM 21138.58335648 -.01108166 00000-0 -46995-2 0 9995 2 48487 53.0508 177.2601 0001051 71.5755 196.4859 15.87218129 1776

Satellite not in orbit